Wind_Speed
21 19 18 17 16 13 12 11 9 7 7 8 9 11 13 14 15 16 16 17 17 17 17 17 17 18 20 25 32 36 34 32 30 26 23 24 24 26 28 29 30 31 31 31 30 29 29 29 29 29 28 28 27 25 24 23 23 22 21 20 19 18 17 17 16 16 15 14 13 13 12 11 11 11 11 11 11 11 11 11 10 10 9 9 9
18 17 18 17 16 13 12 12 11 10 9 9 9 11 13 14 15 15 16 17 18 17 17 17 17 18 19 22 28 35 37 35 33 30 27 24 23 26 27 28 30 31 33 33 32 31 30 30 30 30 30 29 28 27 26 26 25 24 23 22 21 20 20 19 18 18 17 16 16 15 14 13 12 12 12 12 12 12 12 12 12 11 10 10 9
16 16 17 16 15 14 13 13 13 12 12 12 11 12 12 13 15 15 16 17 19 19 18 18 17 18 20 21 25 31 36 37 36 34 30 26 25 26 26 28 29 31 33 33 33 33 32 32 31 31 31 31 30 29 28 28 27 26 25 25 24 23 22 21 21 20 20 19 18 17 16 15 14 14 13 13 13 13 13 13 13 12 12 11 11
16 17 16 15 15 16 15 15 15 14 13 14 14 14 14 14 15 14 14 15 17 19 19 19 18 18 19 20 22 27 33 37 38 36 33 30 28 28 27 27 28 30 32 33 33 34 34 33 32 32 32 32 31 31 30 29 28 27 26 25 25 24 24 23 23 23 22 21 21 20 18 17 16 16 15 14 14 14 14 14 14 14 14 13 13
17 16 15 15 16 18 19 18 17 16 16 16 17 17 17 16 16 15 14 14 15 17 19 19 19 18 18 19 22 25 30 35 37 37 36 34 31 29 28 27 27 29 31 32 33 33 34 34 33 33 32 32 32 32 31 30 29 28 26 25 24 24 24 24 24 24 24 24 23 22 21 19 18 18 17 16 15 15 15 15 15 15 15 15 14
17 17 17 17 17 20 22 21 19 18 18 19 19 20 19 19 18 18 18 17 16 16 18 20 20 20 20 20 20 23 27 31 36 37 37 36 35 32 29 28 27 28 30 31 32 33 33 33 34 34 33 33 33 33 32 30 29 28 27 26 26 25 25 25 25 26 26 26 25 24 23 21 20 20 19 18 17 16 16 16 16 16 16 16 16
17 17 18 19 19 21 22 22 21 19 19 20 21 22 22 21 20 20 20 19 18 18 18 20 21 21 22 21 21 22 24 28 33 36 38 38 38 35 33 31 30 29 29 29 31 32 32 33 34 34 34 35 34 34 33 32 30 29 29 28 28 27 27 27 27 27 27 27 26 26 25 24 23 22 21 20 19 18 18 18 17 17 17 17 17
18 17 18 20 21 21 21 22 22 20 19 21 22 23 24 23 22 23 22 21 21 20 19 20 22 23 23 23 24 24 24 26 29 33 36 39 40 39 37 35 33 31 29 29 30 30 31 32 33 34 34 34 34 34 33 33 32 31 31 30 30 29 29 28 28 28 27 27 27 27 26 25 24 24 23 22 21 20 20 19 19 18 18 18 17
21 19 20 20 20 21 21 21 21 20 20 22 23 24 25 25 24 24 24 23 22 22 21 22 23 24 25 24 25 25 26 27 28 31 34 37 40 42 40 38 37 34 31 29 29 28 29 30 31 32 32 33 33 33 33 33 33 33 32 32 31 30 30 29 29 29 28 28 27 27 27 26 26 25 25 24 23 22 21 20 20 19 19 19 18
23 22 22 21 20 20 21 21 20 21 21 22 23 24 25 26 25 24 25 24 23 23 23 23 24 25 26 26 26 25 26 27 28 31 33 35 38 41 42 42 42 38 33 31 30 28 28 28 29 30 31 32 32 32 33 33 33 33 32 32 32 31 30 30 29 29 29 29 28 28 27 27 26 26 26 26 25 24 23 21 20 20 20 20 19
24 24 24 23 22 21 20 21 21 21 22 22 22 23 25 27 25 23 25 24 24 24 25 24 24 24 24 26 26 26 27 27 28 30 32 34 37 41 42 43 45 42 36 34 33 30 29 28 28 29 31 31 32 32 33 33 33 32 32 32 31 31 31 30 30 30 30 30 29 29 28 27 26 26 26 26 26 25 24 22 21 21 20 21 20
25 25 25 24 23 22 21 22 22 22 23 22 23 23 25 26 24 24 26 26 26 26 26 25 24 23 22 23 25 25 25 26 27 28 31 34 36 39 41 42 44 44 40 37 36 33 31 29 28 28 29 30 31 31 32 32 32 32 31 31 31 31 30 30 30 30 30 30 30 29 28 28 27 26 26 27 27 26 25 24 22 21 21 21 21
27 26 26 25 24 24 23 23 23 23 24 23 23 24 25 26 24 24 25 26 27 26 26 25 23 23 23 23 23 23 23 24 26 27 30 32 34 37 40 41 42 44 44 41 38 36 33 32 30 29 29 29 29 30 31 31 31 31 31 31 30 30 29 29 30 30 30 30 30 30 29 28 28 27 27 26 27 27 26 25 24 23 22 22 22
28 27 27 26 25 25 25 25 25 25 25 24 25 25 25 25 24 24 24 24 25 25 26 25 24 25 25 22 20 20 22 24 26 27 29 31 33 35 37 39 40 41 44 44 41 39 37 34 33 32 31 30 29 29 29 29 29 30 30 29 28 28 28 28 29 29 29 29 29 29 28 28 28 28 27 27 27 27 27 26 26 24 23 23 23
28 28 27 26 26 26 26 26 26 26 26 26 26 26 25 25 25 24 24 23 24 25 25 25 25 26 24 22 20 21 22 23 26 27 29 30 32 35 35 36 37 38 41 44 44 42 39 37 36 35 33 32 31 30 29 28 29 29 28 27 26 26 25 26 27 27 27 27 27 28 28 27 27 27 27 27 27 27 27 27 27 26 25 25 24
27 27 27 27 26 26 26 27 27 27 27 27 27 26 26 26 26 25 24 23 24 25 25 25 25 25 25 25 24 23 23 24 25 26 27 26 27 30 34 35 35 35 36 39 43 44 41 41 39 37 36 35 34 33 32 31 30 29 28 27 26 25 25 25 26 26 26 26 26 27 27 27 27 27 28 27 27 27 28 28 28 28 27 26 26
26 27 27 27 27 26 27 27 27 28 28 27 27 27 27 26 26 25 24 24 25 25 25 25 26 26 27 27 25 25 26 27 26 26 27 25 24 25 30 34 34 35 35 34 38 40 39 42 43 41 39 38 37 36 35 34 33 31 30 29 28 27 27 27 27 27 27 27 27 27 27 27 28 28 29 29 28 28 28 28 28 28 28 27 27
26 26 27 27 27 27 27 27 28 28 28 28 28 28 27 26 26 26 25 25 25 26 26 25 24 25 26 27 27 27 27 27 27 27 26 25 23 21 23 29 33 35 36 34 34 36 36 39 43 42 40 39 40 39 38 37 36 34 33 32 31 30 30 29 28 29 29 28 28 28 28 28 29 29 30 30 30 30 29 29 29 28 28 28 28
25 26 26 27 27 27 27 27 28 28 28 28 28 28 27 26 26 26 25 25 25 26 27 25 24 25 26 27 27 27 26 26 26 25 25 24 21 18 17 24 31 34 36 36 36 39 40 40 41 42 41 42 42 42 41 40 39 39 38 36 35 33 33 33 32 32 32 31 31 30 30 29 30 30 30 31 31 31 30 30 29 29 29 29 29
24 25 25 26 26 27 27 27 27 27 27 27 27 28 27 26 26 26 25 25 25 26 26 26 25 25 25 25 26 27 27 26 26 24 24 22 20 17 13 16 22 27 31 34 37 41 43 43 41 41 42 44 44 42 41 40 38 38 38 38 38 39 37 36 36 36 36 35 34 34 33 32 31 32 32 32 32 31 31 31 30 31 31 31 31
23 24 24 24 25 25 26 26 26 26 26 26 26 27 26 26 25 25 24 24 24 24 25 25 25 25 24 24 25 26 27 27 26 25 24 23 21 18 15 13 16 19 21 24 29 36 40 41 41 40 41 44 44 43 42 41 38 38 38 36 38 41 41 39 38 40 40 40 39 38 37 35 34 33 33 33 33 32 32 32 32 32 33 33 33
23 23 23 23 23 23 24 24 25 25 25 25 26 25 25 24 24 23 23 23 23 23 24 25 24 24 23 23 24 25 25 26 26 25 25 25 23 22 21 21 21 20 18 18 20 26 32 37 39 41 42 44 45 45 44 43 41 39 38 36 36 37 40 41 41 41 42 43 43 42 41 39 37 35 35 35 35 34 34 34 34 34 35 35 36
22 22 22 22 22 22 22 23 23 24 24 24 24 24 23 22 21 21 21 21 21 22 23 24 24 23 23 23 23 23 24 24 24 24 25 25 25 25 25 24 23 22 21 19 19 20 24 30 35 38 42 44 45 46 46 45 44 43 41 41 40 37 36 39 41 43 44 44 44 45 44 43 41 39 38 37 37 35 35 35 35 36 36 37 37
21 21 21 21 21 21 21 22 22 22 22 22 22 22 21 20 20 20 20 19 19 20 21 22 22 22 23 23 22 22 23 23 23 23 23 24 24 25 24 23 21 21 21 20 20 20 21 24 28 32 38 42 44 46 48 47 47 46 43 42 43 42 39 38 38 41 43 44 43 44 44 45 44 43 42 40 38 36 36 36 36 36 37 37 38
20 20 20 20 20 20 21 21 21 21 21 21 20 20 19 18 18 18 18 18 17 18 19 20 21 21 21 22 22 21 21 22 22 22 22 22 22 22 21 20 19 20 20 20 20 20 20 21 22 26 32 36 40 43 47 49 48 47 43 38 35 38 40 40 38 37 38 39 40 41 43 44 45 45 45 43 41 39 37 36 36 36 36 37 38
19 19 19 18 18 18 19 19 20 20 20 20 19 19 18 18 18 17 17 16 16 16 17 17 18 19 20 20 21 21 20 20 21 20 20 20 20 20 19 18 18 18 18 19 20 20 19 19 20 21 25 30 33 35 37 40 43 45 44 38 32 31 33 35 36 35 34 34 35 37 40 42 43 43 44 44 44 42 39 37 36 36 37 38 38
20 19 19 19 18 18 18 18 19 19 19 19 19 19 18 18 18 17 17 16 15 15 16 16 16 17 18 18 18 18 18 18 19 18 18 18 18 18 17 16 17 17 17 17 18 19 19 19 19 19 20 23 27 29 30 31 32 34 37 37 33 31 30 30 31 31 30 30 31 33 36 38 40 40 41 42 43 43 40 38 37 38 39 39 39
19 19 19 19 18 18 18 18 18 18 18 18 17 17 18 17 17 17 17 16 16 15 15 16 16 16 17 17 16 16 15 15 16 16 16 16 16 16 15 15 15 16 15 15 16 17 18 18 19 18 18 19 21 24 26 29 29 30 32 33 33 32 29 29 29 28 28 28 28 29 31 33 36 37 38 39 41 40 39 38 38 39 40 40 40
18 18 17 18 18 18 18 18 19 19 18 17 17 16 16 16 16 16 16 16 16 15 14 15 16 16 16 17 17 16 15 14 14 14 15 15 15 15 14 13 14 15 15 15 15 16 16 17 17 17 17 18 19 18 20 23 26 28 29 29 28 28 27 28 29 29 28 28 27 27 27 29 32 34 35 36 37 38 38 38 39 39 40 40 40
17 17 16 16 17 17 18 19 19 19 19 19 18 17 16 16 16 15 15 15 15 15 14 14 15 16 17 17 17 17 17 16 15 15 14 14 14 14 14 13 13 14 15 15 15 15 15 16 16 15 15 16 17 17 18 19 20 22 22 23 24 24 24 24 25 26 27 28 27 26 26 28 29 31 33 34 36 37 37 37 37 38 38 39 38
17 17 17 16 17 17 18 19 19 20 20 19 19 18 18 18 17 17 17 16 16 15 15 15 15 16 17 17 17 18 18 18 18 18 17 16 15 15 15 15 14 14 15 16 17 16 16 17 17 17 16 16 16 17 18 19 19 19 20 21 23 23 22 21 22 22 23 24 24 24 26 27 28 30 31 32 33 34 34 33 32 33 33 34 34
18 17 17 17 17 17 17 18 19 19 20 20 19 19 19 19 19 19 19 19 18 18 18 18 17 17 18 18 18 18 19 19 19 20 20 19 18 17 17 17 17 16 16 17 18 19 19 19 19 19 19 19 19 19 19 20 20 20 20 22 23 23 22 22 22 21 21 21 21 21 22 24 25 27 27 27 28 28 28 27 27 27 27 28 28
20 19 18 19 19 19 18 18 19 19 19 19 19 19 19 19 19 19 19 19 19 19 18 18 19 19 20 20 20 20 20 20 20 21 21 21 21 21 20 20 19 19 19 19 19 20 21 21 22 22 22 22 22 22 22 22 22 22 23 24 24 24 24 24 23 23 23 23 22 22 22 23 24 25 25 25 25 25 25 25 25 25 25 25 25
21 21 20 21 21 21 21 20 20 21 21 21 21 21 21 21 21 20 20 20 20 20 20 19 19 20 20 21 22 23 23 23 23 23 24 24 24 23 23 23 23 22 22 22 22 22 22 23 23 24 24 24 24 24 24 24 24 24 25 25 26 26 26 26 26 25 25 25 25 25 25 26 26 26 26 26 26 26 26 26 26 26 26 26 26
23 23 22 23 23 23 23 23 22 23 23 24 24 24 24 24 24 24 24 23 23 23 23 22 22 22 22 22 22 23 24 25 25 26 26 26 27 27 27 27 27 26 25 25 25 25 25 25 25 26 26 27 27 27 27 26 26 26 26 27 27 27 27 27 27 27 27 27 27 27 28 28 28 28 28 28 28 29 29 29 29 29 29 29 29
26 25 24 24 23 24 24 25 25 25 25 25 25 25 24 23 24 24 25 25 26 26 25 25 25 25 24 24 24 24 25 25 26 27 27 28 28 29 30 30 30 30 30 29 29 28 28 28 29 28 28 29 29 30 30 29 29 29 29 29 29 29 29 28 28 28 28 28 28 28 29 29 30 30 30 30 30 30 30 30 31 31 31 31 31
30 29 26 25 24 25 26 27 27 28 27 26 25 26 25 25 24 24 24 25 26 26 27 27 27 27 27 27 26 26 26 26 27 27 28 29 29 30 30 31 32 32 32 32 32 32 31 31 31 32 31 31 31 31 32 32 31 31 31 32 32 31 31 30 30 30 29 29 29 29 29 30 30 31 31 31 31 31 31 31 32 32 32 32 32
33 33 30 27 26 26 27 28 27 26 27 27 26 26 26 26 26 26 25 26 27 27 28 29 29 30 30 30 29 29 29 29 28 28 28 29 30 31 31 31 31 32 32 33 34 34 34 33 33 34 34 34 33 33 33 34 33 33 33 33 33 33 33 33 33 32 31 31 30 30 30 30 31 31 31 31 30 30 30 31 31 32 32 32 32
35 37 36 32 30 30 30 30 28 25 25 26 27 27 28 27 28 28 28 28 29 29 30 31 32 33 33 33 33 32 32 33 32 31 31 31 31 31 32 32 32 32 32 33 33 34 34 34 34 34 35 35 35 35 35 35 34 34 35 35 35 35 35 35 35 35 34 33 32 31 31 30 30 30 30 30 30 29 30 30 31 31 31 31 32
35 34 33 31 30 29 28 28 30 30 29 29 29 28 28 28 30 30 30 31 31 31 32 33 34 34 35 35 35 34 33 33 34 34 33 33 33 33 33 33 34 34 34 34 34 34 35 35 35 35 35 36 36 37 37 37 36 36 36 36 36 36 36 36 37 37 36 36 35 34 33 31 30 30 30 30 30 30 30 31 30 30 30 31 31
38 38 38 37 34 33 33 31 30 31 32 33 32 31 28 29 31 32 32 32 32 32 33 34 35 36 36 37 37 36 35 34 34 34 34 34 34 34 34 35 35 36 36 36 36 36 36 36 36 36 36 36 37 38 39 39 39 39 39 39 38 38 38 38 38 39 39 38 37 36 35 34 32 31 30 30 30 31 31 31 31 31 30 30 30
41 42 44 42 38 38 40 39 33 31 32 33 34 34 31 29 32 34 34 34 34 35 36 37 37 38 39 39 38 38 37 36 36 36 35 35 35 35 35 36 37 37 37 38 38 39 39 38 38 38 38 38 38 39 40 41 42 42 42 42 42 42 42 41 40 41 41 40 39 37 36 36 35 34 33 32 32 33 33 33 33 32 32 32 31
44 44 45 45 42 39 40 41 39 37 38 38 38 38 36 32 32 34 35 36 36 38 39 40 40 39 40 41 41 40 39 38 38 38 38 38 38 38 38 38 39 39 39 39 39 40 41 41 41 41 41 41 41 41 42 42 43 44 44 45 45 46 46 46 45 44 44 43 41 39 39 39 38 37 36 36 36 36 36 35 35 34 34 34 35
49 48 48 49 49 48 46 46 45 43 43 43 43 43 42 40 38 37 37 38 38 40 41 42 42 42 42 44 44 44 43 42 42 43 43 43 43 42 42 42 42 42 43 43 42 42 42 42 42 43 44 44 44 44 44 45 45 45 46 46 47 48 48 49 49 48 48 48 46 43 42 42 42 40 39 39 39 39 38 38 37 37 37 38 38
52 51 50 49 50 52 53 52 51 50 50 51 50 49 49 48 45 43 43 43 43 43 43 44 45 46 47 48 48 47 48 48 48 47 47 47 47 46 45 45 45 45 45 46 46 46 45 44 44 44 45 46 46 46 47 47 47 47 47 48 49 49 49 49 50 50 51 51 51 48 46 46 46 44 42 41 41 41 41 41 41 41 40 41 41
54 54 53 52 52 53 55 55 55 54 55 55 54 53 53 52 51 50 49 48 48 47 46 47 48 50 51 52 52 52 52 52 52 52 52 52 51 50 49 48 48 47 47 47 48 48 48 48 47 47 47 47 47 47 48 49 49 49 49 49 49 50 50 50 49 50 52 53 53 52 50 49 50 48 45 45 45 44 44 45 45 45 45 44 44
55 55 56 56 55 55 57 57 58 57 55 54 52 51 52 52 52 52 52 52 51 50 49 50 51 52 53 54 55 55 56 56 55 55 55 55 54 53 53 52 51 50 49 50 50 50 49 49 49 49 49 49 49 49 49 50 51 51 52 52 51 51 51 51 50 50 51 53 55 54 52 51 53 52 50 49 49 48 48 49 49 49 49 48 48
57 57 57 58 58 58 59 60 61 59 55 53 50 49 49 50 51 52 52 52 52 51 51 51 51 52 53 54 55 55 55 55 55 55 56 56 55 55 55 54 53 52 51 51 51 51 51 50 50 51 51 51 51 51 51 52 52 53 53 53 53 54 53 52 52 52 52 54 56 57 55 53 54 54 53 53 53 52 52 53 53 53 53 53 52
58 58 58 58 59 59 59 61 62 60 57 54 50 47 47 48 50 50 50 50 50 50 50 50 50 51 52 53 53 53 53 53 53 53 54 54 54 54 54 54 53 52 52 52 53 53 52 52 52 52 52 53 53 53 53 53 54 54 54 54 55 56 56 55 54 54 54 55 57 59 58 56 56 57 56 56 56 56 56 57 57 57 57 57 56
57 57 57 57 57 58 59 60 61 59 57 54 50 47 47 48 48 48 47 47 47 47 48 49 49 49 50 51 51 51 51 51 51 51 52 52 52 53 53 53 53 53 53 53 53 54 54 54 54 54 54 54 55 55 55 55 56 56 56 55 55 56 56 56 57 56 56 56 57 60 61 61 61 60 59 59 59 59 59 60 60 61 61 61 60
56 56 56 56 56 57 57 57 56 55 53 52 51 49 48 47 47 47 46 45 46 47 48 48 48 48 49 50 50 50 50 50 50 51 51 51 51 51 52 52 53 53 53 53 53 53 54 54 54 54 55 56 57 57 57 57 58 58 58 58 58 58 57 57 58 58 58 57 58 60 62 63 64 64 63 63 62 61 61 62 62 63 64 64 63
Wind_Direction
243 246 249 250 248 246 248 251 252 247 243 249 253 258 265 270 271 268 267 267 267 265 262 260 258 258 254 244 235 226 222 226 230 229 227 227 226 225 224 223 223 223 224 226 226 224 224 224 223 223 223 223 223 225 228 230 230 231 232 233 233 236 240 243 246 249 249 249 251 252 253 254 256 261 268 274 280 284 288 293 298 305 313 318 323
249 255 258 257 257 260 262 264 264 261 262 264 260 259 263 268 272 273 270 267 265 263 258 256 255 256 254 248 241 232 224 224 226 227 226 226 227 227 227 226 225 224 224 225 227 227 227 227 226 226 226 225 224 225 228 231 233 234 235 237 237 238 241 244 247 249 252 252 252 253 253 254 255 257 262 268 273 279 283 287 291 296 303 308 313
254 253 259 262 265 268 267 268 269 267 269 271 268 266 264 266 272 278 276 269 264 262 258 254 251 254 253 246 242 237 230 226 225 226 226 225 226 227 227 228 228 226 226 226 227 229 230 231 230 229 229 228 227 227 228 231 234 236 237 239 241 242 243 245 247 249 251 253 253 253 253 254 254 255 258 263 268 273 277 282 286 290 294 299 303
252 250 257 268 275 275 273 271 271 274 275 276 277 274 271 270 274 279 279 274 266 261 259 256 251 251 252 246 242 239 234 230 229 228 228 228 228 229 228 228 230 229 227 227 228 229 230 232 233 233 232 231 230 230 230 232 234 237 238 240 242 245 245 246 247 249 251 252 253 252 253 254 254 255 256 259 263 267 272 276 280 285 288 292 295
254 260 268 276 280 281 284 285 282 283 283 280 278 276 274 272 273 273 275 277 273 266 261 258 253 249 250 250 243 239 236 234 233 232 231 231 230 231 231 230 231 231 230 229 229 230 231 233 234 235 235 234 234 233 232 233 234 236 238 239 242 245 247 247 247 249 250 251 253 253 253 253 254 255 255 256 258 261 266 271 275 279 282 286 288
262 271 280 286 284 282 288 291 287 283 281 279 277 275 273 271 270 268 268 273 276 274 267 262 257 250 248 249 245 241 240 238 238 239 237 236 235 233 234 235 235 235 233 232 232 231 231 232 233 234 235 235 235 235 235 235 236 237 239 241 242 245 246 248 248 248 250 251 252 253 254 254 254 255 256 256 256 257 260 264 269 273 276 280 283
269 270 278 286 286 284 288 290 286 281 277 275 274 273 272 270 268 265 264 267 271 274 271 266 261 256 251 248 245 242 242 241 241 243 243 243 242 237 234 236 238 239 238 236 235 233 232 232 232 233 234 235 235 236 236 237 238 239 241 243 244 245 246 247 248 248 249 251 252 253 254 254 255 255 256 256 255 255 256 259 263 267 271 275 279
276 274 278 284 286 286 285 284 283 281 277 274 272 272 271 269 266 264 262 261 265 268 269 268 263 259 255 249 246 244 244 243 242 243 245 245 246 244 239 237 238 240 241 240 237 236 235 234 233 234 234 235 236 237 238 239 240 241 242 244 245 247 247 247 248 249 250 251 253 254 254 255 255 256 257 256 256 255 255 257 261 264 268 271 275
282 283 284 286 286 285 282 280 280 279 276 273 273 273 271 268 263 261 259 259 262 265 265 267 265 259 255 250 247 246 245 245 245 246 246 245 246 247 245 241 238 237 239 242 241 239 239 237 236 236 237 238 238 238 239 240 241 242 242 243 244 246 247 248 249 250 251 252 253 254 255 255 255 255 256 257 257 257 256 257 259 263 267 270 272
279 282 286 287 286 285 283 282 281 279 276 273 272 271 270 268 263 260 261 262 263 264 264 266 265 262 257 252 249 248 248 247 248 248 248 246 244 246 246 244 242 238 235 239 242 241 240 239 238 239 239 239 240 239 239 240 241 242 242 242 243 244 245 247 248 250 251 252 252 253 254 255 254 254 255 257 258 258 258 257 258 261 265 269 271
272 276 280 282 283 283 283 282 281 278 277 275 272 270 269 268 267 266 266 265 263 264 265 264 266 268 263 254 249 249 250 250 251 252 254 252 249 246 245 244 243 240 236 235 237 238 239 239 239 241 241 240 240 240 240 240 240 241 242 242 243 244 245 246 247 248 250 251 252 252 253 254 254 253 253 254 257 258 258 257 257 259 262 266 270
269 272 275 278 280 281 281 279 278 277 276 275 274 272 270 270 272 272 271 269 267 267 268 267 269 271 266 258 252 251 253 255 256 257 258 259 257 252 247 244 243 241 238 236 235 235 236 238 240 241 242 242 241 240 241 241 241 241 241 242 243 244 246 247 248 249 250 251 252 252 253 254 254 253 252 252 253 255 256 257 256 257 259 263 267
267 270 272 274 276 278 279 278 277 277 277 276 275 274 273 273 275 274 272 272 270 269 271 272 271 272 270 263 256 254 257 259 260 259 260 262 263 260 252 245 243 240 238 237 236 235 233 235 239 241 242 244 243 242 242 243 243 243 243 242 243 245 247 248 249 249 250 250 251 252 252 252 253 252 251 250 250 252 254 256 256 256 257 260 264
266 269 270 272 274 277 278 279 279 279 279 279 277 275 275 276 277 275 274 275 274 270 270 271 270 271 270 263 259 262 261 261 261 262 264 263 263 264 256 246 243 240 238 236 237 237 235 233 235 239 240 242 243 243 243 244 245 245 245 246 246 247 248 249 250 250 251 252 251 251 251 250 250 251 251 250 250 250 252 254 256 257 257 259 261
265 268 271 273 276 278 279 280 280 279 279 278 277 277 277 278 277 277 278 279 278 273 270 270 269 267 263 263 270 272 267 266 265 264 267 268 267 263 254 246 242 240 238 236 236 237 237 236 235 237 239 241 242 243 243 243 244 245 246 248 250 251 251 251 252 253 254 255 254 253 251 250 249 249 250 250 250 250 251 253 256 258 259 259 261
268 270 273 275 277 278 279 279 278 278 278 277 277 278 278 279 280 280 281 280 278 276 272 270 271 268 264 269 275 273 269 270 269 266 266 271 274 264 251 246 244 241 240 238 237 237 238 239 238 237 238 240 241 242 244 244 243 244 245 247 249 251 252 253 253 254 254 255 256 255 253 251 250 249 249 250 250 251 251 253 255 257 259 260 262
272 274 275 275 276 276 276 276 275 275 276 276 277 277 277 280 281 283 282 280 279 277 274 271 271 270 269 271 273 271 269 269 270 269 267 273 283 271 250 246 248 245 244 243 239 238 239 241 240 239 239 239 240 240 242 245 244 243 244 245 247 248 249 251 252 254 254 255 255 255 253 252 251 250 250 250 251 251 252 253 254 256 257 259 262
275 275 275 275 275 275 274 273 272 273 274 274 276 277 278 278 279 280 281 280 279 278 275 272 270 269 269 270 271 271 270 270 272 273 272 275 284 278 254 246 248 246 245 245 241 235 236 239 239 239 240 242 243 242 241 243 244 245 244 244 245 247 247 248 251 253 254 255 255 255 254 254 253 252 252 253 253 254 255 256 257 258 259 260 262
276 275 274 274 274 273 272 271 271 271 272 272 274 275 276 276 277 278 278 278 278 277 276 273 268 267 268 268 268 270 272 272 272 274 276 277 278 277 259 243 242 242 243 245 242 237 237 240 240 239 242 243 245 246 244 243 244 246 247 245 245 246 246 247 248 250 251 253 254 255 255 255 256 256 256 256 256 257 258 260 261 262 263 263 265
277 275 274 273 272 272 271 271 271 271 271 271 271 273 274 275 276 276 276 277 277 277 276 274 270 268 268 267 267 268 271 271 271 274 277 276 275 273 254 238 242 243 244 245 244 242 242 245 242 239 242 244 244 246 246 245 246 247 248 247 246 246 246 247 249 250 251 251 251 253 254 254 256 258 259 259 260 261 262 263 264 266 267 268 269
275 274 273 272 271 271 271 271 271 270 270 270 269 271 272 274 275 275 276 277 276 276 275 274 272 270 268 266 266 267 268 270 270 272 274 274 275 272 259 263 272 262 252 249 246 245 246 246 243 239 240 244 245 246 247 248 250 251 250 248 247 246 245 246 248 250 251 252 252 252 253 253 254 256 259 260 261 262 264 265 267 268 270 271 272
274 274 273 272 272 271 271 271 271 270 270 270 270 271 272 273 275 276 277 276 275 275 275 274 274 271 269 266 265 266 267 268 268 268 271 272 273 271 267 274 283 278 270 263 255 251 249 248 247 244 243 244 245 247 248 249 251 251 251 250 249 248 246 245 246 249 251 253 253 254 253 253 253 254 256 258 259 261 263 265 267 269 270 271 273
275 274 273 272 272 271 272 271 272 272 271 271 271 273 274 275 277 278 279 278 277 276 275 275 274 272 270 267 266 266 266 267 267 266 267 268 268 268 269 272 276 276 275 272 267 262 257 253 251 250 249 247 246 247 248 248 248 248 251 254 252 251 250 248 247 249 251 253 255 255 254 253 253 253 254 256 257 258 260 264 266 268 270 271 272
273 273 273 272 271 271 272 272 272 273 273 273 274 275 277 278 279 280 280 280 278 276 275 275 275 273 271 270 268 266 266 266 266 265 264 265 266 266 267 269 269 268 269 271 270 268 267 264 258 252 252 251 249 249 249 249 247 247 251 255 254 254 255 254 252 252 251 253 255 255 254 253 253 253 253 255 257 258 259 261 264 267 269 271 272
270 271 272 272 272 272 273 273 273 274 274 275 276 278 279 279 279 280 280 280 278 276 276 275 276 275 273 271 271 269 267 267 267 266 264 264 265 266 267 266 264 261 262 265 267 268 269 272 267 256 252 252 251 251 252 251 250 247 247 253 258 259 258 256 256 255 254 255 257 256 255 253 252 252 252 254 256 258 260 262 264 267 268 270 272
268 269 270 271 273 274 274 275 275 275 276 276 278 279 281 280 280 280 279 278 277 275 275 275 275 276 276 274 273 272 270 269 269 269 267 265 265 266 266 264 262 260 258 260 263 266 268 271 272 264 255 253 253 254 255 254 252 249 247 251 261 265 262 256 254 255 258 260 261 259 255 251 249 249 250 252 254 256 260 262 264 266 268 270 272
268 268 269 270 271 273 273 274 274 274 275 276 278 280 283 284 283 282 281 279 278 274 273 274 274 274 276 277 276 277 275 272 271 270 269 267 266 266 265 263 262 262 260 258 260 263 266 268 270 269 262 259 258 258 257 257 256 254 250 250 257 263 262 255 252 255 260 262 263 261 255 248 245 245 248 250 252 254 257 260 262 265 268 270 270
270 269 270 270 271 272 272 273 272 272 272 273 276 279 282 285 286 286 286 284 283 280 276 275 276 275 275 276 276 277 278 276 274 273 271 269 268 268 266 263 262 262 261 259 259 260 264 267 269 270 269 265 263 259 255 252 251 251 249 250 254 258 257 254 254 256 258 260 262 260 254 246 241 243 246 248 250 252 255 259 262 265 267 268 268
271 271 272 272 273 274 274 274 273 273 272 271 272 274 278 282 285 288 288 289 288 287 283 280 279 279 277 277 277 276 275 274 273 273 272 271 271 270 268 263 260 261 261 259 258 258 261 265 268 270 270 268 267 265 257 250 247 247 248 251 254 256 255 256 258 256 255 256 258 259 255 248 243 243 245 247 249 252 255 259 262 264 265 266 267
270 271 272 274 275 276 276 276 275 274 273 272 271 271 273 275 279 281 283 285 286 286 286 283 281 281 280 279 278 278 277 274 272 270 269 267 267 269 269 266 260 259 261 260 258 257 257 260 263 264 265 266 268 268 263 257 253 251 250 251 254 256 257 258 258 256 255 255 255 256 255 252 249 247 247 249 251 254 257 259 261 262 264 265 266
270 273 274 275 275 275 276 276 275 273 272 272 272 271 272 273 275 276 278 279 279 279 280 280 279 278 279 279 278 278 279 278 276 273 271 268 265 264 264 265 263 259 259 260 261 260 257 258 260 260 260 261 262 263 263 262 259 257 255 254 255 257 258 258 258 259 259 259 258 256 254 254 253 252 252 252 253 255 257 259 259 260 260 262 264
269 272 276 278 278 277 277 276 275 274 273 272 272 272 273 273 274 275 277 278 278 278 278 278 278 277 277 276 276 276 277 277 278 276 275 273 269 266 263 262 263 262 260 260 262 263 262 261 261 261 260 260 259 258 259 261 260 259 258 257 257 259 259 259 259 259 260 261 261 259 257 256 255 254 254 254 254 254 254 255 255 255 256 258 262
266 267 272 277 279 279 278 276 275 274 273 273 272 273 273 272 272 272 273 275 276 276 277 278 279 279 279 278 277 275 274 274 275 275 275 274 272 271 268 265 263 262 262 262 263 264 264 264 264 264 263 262 262 261 259 259 260 260 260 260 260 260 260 260 260 259 259 259 259 259 258 257 256 256 255 255 255 254 254 254 254 256 258 260 262
260 262 265 270 273 275 275 275 275 274 273 272 271 271 271 271 271 271 272 274 276 277 278 278 279 279 278 279 279 278 277 275 274 273 273 273 272 271 270 269 266 264 263 262 262 263 264 264 265 266 266 265 264 263 263 262 261 261 261 261 261 262 261 261 261 260 260 259 260 259 258 257 257 258 258 259 258 258 257 258 259 261 263 265 267
254 256 258 260 262 266 268 269 270 271 272 272 272 270 270 270 271 273 275 278 281 282 282 281 281 280 279 278 278 278 278 277 277 276 274 273 272 271 270 269 269 267 265 263 262 262 263 264 264 263 265 266 266 265 265 264 264 264 263 262 262 262 262 262 263 262 261 260 260 260 260 260 260 261 261 261 261 262 262 263 264 265 266 268 269
256 255 257 258 258 261 264 265 266 266 266 268 271 272 272 272 273 275 276 279 282 284 285 285 284 284 283 282 280 279 278 277 277 277 276 275 274 273 272 271 270 269 267 266 264 262 262 264 265 264 263 264 266 267 266 266 265 266 266 266 265 264 264 263 263 262 261 260 259 259 259 261 262 262 262 262 263 264 265 266 267 268 268 269 270
260 259 258 258 258 260 263 265 266 265 263 263 266 269 272 273 273 274 274 276 278 280 283 285 286 286 286 285 284 283 281 279 278 277 276 276 275 274 274 273 272 272 271 270 268 266 264 263 265 267 266 265 264 266 266 266 266 266 267 268 268 268 268 266 264 263 261 261 260 259 258 259 260 261 262 263 264 265 266 267 268 268 269 270 270
264 260 259 258 259 261 262 262 262 262 262 263 264 266 270 271 271 271 270 271 273 275 278 281 283 284 285 285 285 284 284 283 281 280 278 276 275 275 274 274 273 273 273 273 272 272 271 268 267 267 268 269 267 266 265 265 266 267 267 267 268 268 269 269 268 266 264 262 260 259 259 259 260 261 262 262 263 264 264 265 266 268 268 269 269
268 261 258 259 262 264 261 256 255 255 258 260 263 266 267 268 269 270 271 272 272 274 276 278 280 281 282 283 284 285 286 286 285 284 282 280 277 276 275 274 274 274 274 274 273 273 274 273 273 271 271 272 272 271 269 267 266 265 265 266 267 267 267 267 267 267 266 264 263 261 259 258 258 259 260 261 261 261 262 263 264 265 266 266 267
269 261 257 259 261 263 262 257 255 255 256 258 262 265 266 266 269 270 271 272 273 274 276 277 279 280 281 282 282 283 284 286 286 286 285 283 282 280 278 276 275 275 274 274 274 274 273 273 274 273 273 273 274 274 274 272 270 268 266 265 265 265 265 265 266 266 265 265 265 264 262 259 256 255 256 258 259 259 260 261 262 263 264 265 266
262 260 261 264 266 267 266 264 262 259 258 260 263 264 261 261 266 269 269 271 273 274 275 276 277 279 282 283 282 281 281 282 283 284 284 284 283 282 281 280 278 277 276 275 275 275 275 274 273 273 272 272 272 272 272 273 273 272 270 268 267 265 265 264 264 264 263 263 262 263 262 260 259 257 257 258 259 260 260 261 261 262 263 264 265
260 259 262 265 267 269 268 264 261 261 262 263 266 267 262 258 261 265 268 270 273 274 275 276 277 278 280 280 280 280 281 282 283 283 283 284 284 283 282 281 281 279 278 277 277 276 276 275 274 273 272 271 271 270 269 269 270 270 271 271 270 268 266 265 264 263 263 262 260 258 257 256 257 257 257 258 258 260 262 263 265 265 265 265 266
265 266 266 265 265 267 266 261 257 260 264 266 267 268 265 263 264 266 268 270 272 274 276 277 277 278 278 278 279 280 280 281 282 284 284 285 286 285 284 283 282 282 281 280 279 278 277 276 275 273 272 271 271 270 269 268 267 267 267 267 268 268 267 267 266 264 263 263 261 257 253 253 253 254 255 256 256 257 260 262 265 266 268 269 270
270 271 271 271 270 268 267 265 262 262 265 268 270 270 270 271 272 271 271 273 274 275 275 276 277 279 278 278 279 279 280 280 281 283 284 286 287 287 287 285 284 284 283 282 282 280 279 278 277 275 274 272 271 271 270 269 268 267 266 265 265 265 265 265 265 264 263 263 262 259 254 253 253 253 253 255 257 259 260 261 262 264 266 269 271
269 270 270 271 272 271 269 268 268 267 268 270 272 273 275 276 276 276 275 275 276 276 276 276 278 279 279 279 280 280 280 281 281 283 284 284 285 287 287 287 286 285 285 285 284 283 281 279 278 276 275 274 272 271 271 271 270 269 267 266 265 264 263 263 263 262 261 261 261 260 257 255 255 256 256 257 258 260 262 264 264 265 267 269 271
267 268 269 269 270 271 270 269 269 269 270 270 271 273 275 277 279 280 279 278 278 278 278 278 278 279 279 280 281 281 281 281 282 283 283 283 283 284 285 285 285 284 284 284 284 283 282 281 280 278 277 276 274 272 271 271 270 269 268 267 266 265 264 263 262 261 260 259 259 259 257 256 257 257 258 259 260 262 265 267 268 269 269 270 271
267 267 267 268 270 271 272 272 272 272 274 275 275 275 276 278 279 280 280 280 280 280 279 279 279 279 280 280 280 280 281 281 282 282 281 282 282 282 283 283 283 283 282 282 281 281 280 279 279 278 277 277 276 274 272 271 270 269 268 268 267 267 265 264 263 262 260 259 258 257 256 255 257 259 259 260 262 263 266 268 269 271 272 271 272
267 267 267 268 268 270 271 273 274 275 277 278 277 277 278 278 279 279 279 280 280 280 279 279 279 279 279 279 279 278 278 279 279 279 279 280 281 281 281 282 282 281 280 280 279 279 278 277 276 275 275 274 274 274 273 272 270 269 269 268 267 266 265 264 263 262 262 260 258 257 256 255 257 259 259 261 262 264 266 267 269 270 272 272 272
266 267 268 269 269 269 270 271 273 275 277 277 278 278 278 277 277 277 278 279 279 279 279 279 279 279 279 278 278 278 277 277 277 277 277 278 279 279 280 280 280 279 278 278 277 277 277 276 275 274 273 272 272 271 271 271 270 270 269 268 267 266 265 263 262 260 260 260 259 258 257 256 256 258 258 260 262 264 265 267 268 270 271 271 272
265 266 267 268 269 269 269 271 272 274 276 277 278 277 276 275 275 276 277 277 276 277 278 278 279 279 278 278 278 278 278 278 277 276 276 276 277 277 278 278 277 277 276 276 275 275 275 274 273 273 272 272 271 270 270 270 270 269 269 268 266 265 265 264 262 260 259 259 259 258 257 256 257 257 258 259 261 262 264 265 267 269 270 270 271
266 266 267 267 268 268 269 271 272 273 275 276 276 276 275 274 275 276 276 276 276 277 278 279 280 279 278 278 278 278 278 278 278 277 277 277 277 277 277 276 276 276 276 275 275 274 274 273 273 272 271 270 270 270 270 269 268 268 268 267 266 265 264 263 262 261 260 258 258 258 257 256 256 257 258 258 259 260 262 263 265 267 269 270 271
Height
5795 5795 5794 5795 5795 5797 5799 5800 5801 5801 5802 5803 5803 5803 5804 5804 5804 5805 5806 5806 5806 5807 5807 5807 5808 5808 5809 5810 5811 5812 5813 5814 5816 5818 5821 5821 5822 5824 5824 5826 5827 5829 5830 5831 5833 5835 5836 5837 5839 5840 5841 5842 5843 5844 5845 5846 5847 5848 5848 5849 5851 5851 5852 5853 5854 5854 5855 5855 5856 5856 5857 5857 5858 5858 5858 5858 5858 5858 5858 5857 5857 5857 5856 5856 5856
5792 5792 5792 5793 5793 5795 5797 5798 5799 5799 5800 5801 5802 5803 5803 5803 5803 5803 5803 5804 5804 5804 5805 5805 5806 5807 5807 5808 5809 5810 5811 5812 5813 5815 5817 5819 5820 5821 5822 5824 5825 5826 5828 5829 5830 5832 5834 5835 5836 5838 5839 5840 5841 5842 5843 5844 5845 5845 5846 5847 5849 5850 5850 5851 5852 5853 5853 5854 5854 5855 5856 5856 5856 5857 5857 5857 5857 5857 5857 5857 5856 5856 5856 5856 5855
5790 5790 5791 5792 5793 5795 5795 5796 5797 5798 5799 5800 5801 5802 5802 5801 5801 5801 5801 5801 5801 5801 5802 5803 5804 5805 5805 5806 5807 5808 5809 5810 5811 5813 5815 5817 5818 5818 5820 5821 5822 5824 5825 5827 5828 5829 5831 5832 5834 5835 5837 5838 5839 5840 5841 5842 5842 5843 5844 5845 5847 5848 5849 5849 5850 5851 5851 5852 5853 5853 5854 5854 5855 5855 5856 5856 5856 5856 5856 5856 5856 5855 5855 5855 5855
5790 5790 5791 5791 5793 5793 5792 5793 5795 5796 5797 5798 5799 5799 5799 5799 5798 5798 5798 5798 5799 5799 5800 5801 5802 5803 5803 5804 5805 5806 5807 5808 5809 5811 5812 5814 5816 5816 5818 5819 5820 5821 5823 5824 5825 5827 5828 5830 5831 5833 5834 5836 5837 5838 5839 5840 5840 5841 5842 5843 5844 5846 5847 5847 5848 5849 5850 5850 5851 5851 5852 5853 5853 5854 5854 5854 5855 5855 5855 5855 5855 5854 5854 5854 5854
5788 5787 5788 5790 5790 5790 5789 5790 5792 5793 5794 5795 5795 5796 5796 5796 5796 5796 5795 5795 5796 5797 5798 5799 5800 5801 5802 5802 5803 5804 5805 5806 5807 5808 5809 5811 5814 5815 5816 5817 5818 5819 5820 5821 5823 5824 5826 5827 5829 5830 5832 5834 5835 5836 5837 5837 5838 5839 5840 5841 5842 5843 5844 5845 5846 5847 5847 5848 5849 5849 5850 5851 5851 5852 5852 5853 5853 5853 5853 5853 5853 5853 5853 5853 5853
5784 5783 5785 5787 5788 5788 5787 5787 5788 5789 5790 5791 5792 5792 5793 5793 5793 5793 5793 5793 5794 5795 5796 5797 5798 5799 5800 5800 5801 5802 5803 5805 5806 5806 5808 5809 5812 5814 5814 5815 5816 5817 5818 5819 5820 5822 5823 5825 5826 5828 5829 5831 5832 5834 5835 5835 5836 5837 5838 5838 5839 5840 5842 5843 5843 5844 5845 5846 5846 5847 5848 5849 5849 5850 5850 5851 5851 5852 5852 5852 5852 5852 5852 5852 5852
5783 5784 5784 5785 5786 5787 5786 5786 5785 5786 5787 5788 5789 5790 5790 5791 5791 5791 5791 5791 5792 5793 5794 5795 5795 5796 5798 5798 5799 5800 5801 5802 5804 5805 5806 5807 5809 5811 5813 5813 5814 5815 5816 5817 5818 5819 5821 5822 5823 5825 5826 5828 5829 5831 5832 5833 5834 5835 5835 5836 5837 5837 5839 5840 5841 5841 5842 5843 5844 5845 5846 5846 5847 5848 5848 5849 5849 5850 5850 5850 5850 5850 5850 5850 5850
5783 5784 5784 5784 5785 5786 5786 5785 5785 5785 5786 5786 5787 5788 5788 5788 5789 5788 5788 5789 5790 5790 5791 5792 5793 5794 5795 5796 5797 5798 5799 5800 5801 5802 5803 5805 5806 5808 5810 5811 5811 5813 5814 5815 5816 5817 5819 5820 5821 5822 5823 5825 5826 5828 5829 5830 5831 5832 5833 5833 5834 5835 5836 5837 5838 5839 5840 5841 5842 5843 5844 5844 5845 5845 5846 5847 5847 5848 5848 5848 5849 5849 5849 5849 5849
5780 5781 5782 5783 5784 5784 5784 5784 5785 5785 5785 5785 5786 5786 5786 5786 5786 5786 5786 5787 5787 5788 5789 5789 5789 5790 5792 5793 5794 5795 5796 5797 5798 5799 5800 5802 5803 5804 5806 5808 5809 5810 5811 5813 5814 5815 5817 5818 5819 5820 5821 5823 5824 5825 5826 5827 5828 5829 5830 5831 5831 5832 5833 5835 5836 5836 5837 5838 5839 5840 5841 5842 5842 5843 5844 5844 5845 5845 5846 5847 5847 5847 5847 5847 5847
5778 5780 5781 5781 5782 5783 5783 5782 5783 5784 5784 5784 5784 5784 5783 5782 5783 5784 5785 5785 5786 5786 5786 5787 5787 5787 5789 5790 5791 5792 5793 5794 5795 5796 5797 5798 5799 5800 5802 5805 5805 5807 5809 5810 5811 5813 5814 5815 5817 5818 5819 5820 5822 5823 5823 5824 5824 5826 5827 5828 5829 5830 5831 5832 5833 5834 5834 5835 5836 5837 5838 5839 5840 5840 5841 5842 5842 5843 5844 5844 5845 5845 5845 5845 5845
5778 5779 5779 5780 5780 5781 5782 5782 5782 5783 5783 5783 5782 5782 5780 5779 5781 5783 5784 5784 5784 5784 5784 5785 5785 5785 5787 5788 5789 5789 5790 5791 5792 5793 5794 5795 5795 5796 5798 5800 5801 5803 5806 5807 5808 5809 5811 5812 5814 5815 5816 5817 5819 5820 5821 5821 5822 5823 5824 5825 5826 5827 5828 5829 5830 5831 5832 5832 5833 5834 5835 5836 5837 5838 5838 5839 5840 5840 5841 5842 5843 5843 5843 5843 5843
5776 5777 5778 5779 5779 5779 5781 5781 5781 5781 5781 5781 5780 5779 5778 5777 5780 5782 5782 5782 5782 5782 5782 5783 5784 5784 5785 5785 5786 5787 5788 5788 5789 5790 5791 5791 5792 5792 5793 5795 5797 5799 5802 5803 5804 5806 5808 5809 5810 5812 5813 5814 5816 5817 5818 5819 5820 5820 5821 5822 5823 5825 5826 5827 5828 5829 5829 5830 5830 5831 5832 5833 5834 5835 5835 5836 5837 5838 5838 5839 5840 5841 5841 5841 5841
5775 5775 5776 5777 5777 5778 5779 5779 5779 5779 5779 5778 5778 5778 5776 5776 5778 5779 5779 5780 5780 5780 5781 5781 5782 5782 5782 5783 5784 5784 5785 5786 5786 5787 5788 5788 5788 5789 5789 5790 5792 5795 5797 5799 5801 5803 5804 5806 5807 5808 5810 5811 5812 5814 5815 5816 5817 5818 5819 5820 5821 5822 5823 5824 5825 5826 5827 5827 5827 5828 5829 5830 5831 5831 5832 5833 5834 5835 5836 5836 5837 5838 5839 5839 5839
5773 5773 5774 5775 5775 5776 5776 5776 5777 5777 5777 5776 5776 5776 5775 5775 5775 5776 5776 5777 5778 5778 5778 5779 5779 5779 5779 5781 5782 5782 5783 5783 5784 5784 5785 5785 5785 5785 5785 5786 5788 5790 5792 5795 5797 5799 5800 5802 5804 5805 5806 5808 5809 5810 5812 5813 5814 5815 5816 5817 5819 5820 5821 5822 5823 5823 5824 5824 5825 5825 5826 5827 5827 5828 5829 5830 5831 5832 5833 5834 5834 5835 5836 5836 5837
5771 5772 5772 5773 5773 5773 5774 5774 5774 5774 5774 5774 5773 5773 5773 5773 5773 5773 5774 5774 5775 5776 5776 5776 5776 5776 5777 5779 5779 5780 5780 5780 5781 5781 5782 5782 5781 5781 5782 5782 5784 5786 5788 5791 5793 5795 5797 5799 5800 5802 5803 5804 5806 5807 5808 5810 5811 5812 5814 5815 5816 5818 5819 5820 5821 5821 5822 5822 5822 5823 5823 5824 5825 5825 5826 5827 5828 5829 5830 5831 5831 5832 5833 5833 5834
5769 5769 5770 5770 5771 5771 5771 5772 5772 5772 5772 5771 5771 5771 5771 5771 5771 5771 5772 5771 5772 5773 5774 5774 5774 5774 5775 5776 5776 5776 5777 5778 5778 5779 5779 5778 5778 5777 5777 5778 5780 5782 5784 5787 5789 5791 5794 5795 5797 5799 5800 5801 5803 5804 5806 5806 5807 5809 5810 5812 5813 5815 5816 5817 5818 5819 5820 5820 5820 5821 5821 5822 5822 5823 5823 5824 5825 5826 5827 5828 5828 5829 5830 5830 5831
5766 5767 5767 5768 5768 5769 5769 5769 5769 5769 5769 5768 5768 5768 5769 5769 5769 5769 5769 5769 5769 5769 5771 5772 5772 5772 5772 5773 5774 5773 5774 5775 5775 5776 5776 5775 5775 5774 5774 5775 5777 5779 5781 5783 5785 5787 5789 5790 5792 5794 5796 5798 5799 5801 5803 5803 5804 5805 5807 5808 5810 5811 5812 5814 5815 5816 5817 5817 5817 5818 5819 5819 5819 5820 5820 5821 5822 5823 5823 5824 5825 5826 5827 5827 5828
5763 5764 5764 5764 5765 5766 5766 5766 5766 5766 5766 5766 5765 5765 5766 5766 5766 5766 5767 5767 5767 5767 5767 5768 5769 5769 5769 5770 5770 5771 5771 5772 5772 5773 5773 5773 5772 5771 5771 5772 5774 5776 5778 5780 5782 5783 5785 5785 5787 5790 5793 5794 5795 5796 5798 5800 5800 5801 5803 5804 5806 5807 5809 5810 5812 5813 5813 5814 5815 5815 5816 5816 5817 5817 5817 5818 5818 5819 5820 5821 5822 5823 5824 5824 5825
5761 5761 5761 5762 5762 5762 5763 5763 5763 5763 5763 5763 5763 5763 5763 5763 5764 5764 5765 5765 5765 5764 5764 5765 5766 5767 5767 5767 5767 5768 5769 5770 5770 5770 5770 5771 5770 5770 5770 5771 5772 5773 5775 5777 5779 5780 5781 5781 5783 5787 5788 5789 5790 5791 5793 5795 5796 5798 5799 5800 5802 5803 5805 5806 5808 5809 5809 5810 5811 5812 5813 5814 5814 5814 5814 5815 5815 5816 5817 5818 5819 5820 5821 5821 5822
5758 5758 5759 5759 5759 5759 5759 5760 5760 5760 5760 5761 5761 5760 5760 5761 5761 5761 5762 5762 5763 5762 5761 5762 5763 5764 5765 5765 5765 5765 5766 5767 5768 5768 5768 5768 5769 5769 5769 5769 5771 5772 5772 5774 5775 5776 5777 5777 5780 5782 5783 5783 5786 5788 5788 5790 5793 5795 5795 5796 5798 5799 5801 5803 5804 5805 5806 5807 5808 5809 5810 5811 5811 5811 5812 5812 5813 5813 5814 5815 5816 5817 5817 5818 5819
5756 5756 5756 5756 5756 5756 5756 5756 5757 5757 5757 5757 5758 5758 5758 5758 5758 5758 5759 5760 5760 5760 5759 5759 5760 5761 5762 5762 5762 5763 5764 5764 5765 5766 5766 5766 5767 5768 5768 5768 5769 5770 5770 5771 5772 5773 5774 5774 5775 5777 5778 5779 5781 5783 5785 5787 5789 5790 5790 5792 5793 5794 5796 5799 5800 5801 5803 5803 5804 5805 5806 5807 5808 5809 5809 5809 5810 5810 5811 5812 5813 5813 5814 5814 5815
5753 5753 5753 5753 5754 5753 5754 5753 5753 5754 5754 5754 5754 5754 5755 5755 5755 5755 5756 5757 5757 5757 5757 5757 5757 5757 5758 5759 5759 5760 5761 5761 5762 5763 5763 5764 5765 5766 5766 5766 5767 5767 5768 5768 5769 5770 5771 5771 5772 5773 5774 5775 5777 5778 5780 5783 5785 5785 5786 5788 5789 5789 5792 5795 5796 5797 5799 5800 5801 5802 5802 5803 5805 5806 5806 5806 5806 5807 5808 5808 5809 5810 5810 5811 5811
5750 5750 5751 5751 5751 5751 5751 5751 5751 5751 5751 5751 5751 5751 5752 5752 5752 5753 5753 5753 5754 5754 5755 5754 5754 5755 5755 5756 5756 5757 5758 5758 5758 5759 5760 5761 5762 5762 5763 5764 5765 5764 5764 5765 5766 5767 5767 5767 5768 5769 5770 5771 5772 5774 5776 5778 5780 5781 5782 5783 5784 5786 5788 5790 5791 5793 5794 5795 5796 5797 5798 5799 5801 5802 5802 5802 5802 5804 5805 5805 5805 5806 5806 5807 5807
5748 5748 5748 5748 5748 5748 5748 5748 5748 5748 5748 5748 5748 5749 5749 5749 5750 5750 5750 5751 5751 5752 5752 5752 5752 5752 5752 5753 5753 5754 5755 5755 5755 5756 5757 5758 5758 5759 5760 5761 5761 5761 5761 5762 5763 5763 5763 5764 5764 5765 5766 5767 5768 5770 5771 5773 5775 5778 5779 5779 5780 5782 5784 5785 5787 5788 5789 5791 5792 5792 5793 5794 5796 5797 5798 5798 5798 5800 5801 5801 5802 5802 5802 5803 5803
5745 5746 5746 5746 5746 5746 5746 5746 5746 5746 5746 5746 5746 5746 5746 5747 5747 5748 5748 5748 5749 5749 5749 5749 5749 5750 5750 5750 5751 5751 5752 5752 5752 5753 5754 5754 5755 5755 5756 5758 5758 5758 5759 5759 5760 5760 5760 5760 5760 5761 5762 5763 5764 5765 5767 5769 5771 5774 5776 5777 5777 5778 5779 5780 5781 5783 5784 5785 5786 5787 5788 5789 5790 5792 5793 5793 5794 5795 5796 5797 5798 5798 5798 5799 5799
5743 5744 5744 5744 5744 5744 5745 5745 5744 5744 5744 5744 5744 5744 5744 5745 5745 5745 5746 5746 5747 5747 5747 5747 5747 5747 5747 5748 5748 5748 5749 5749 5750 5750 5751 5752 5752 5753 5754 5755 5755 5755 5756 5757 5757 5757 5757 5757 5757 5758 5758 5759 5761 5762 5763 5765 5767 5769 5772 5773 5774 5775 5774 5775 5776 5777 5779 5780 5780 5781 5781 5782 5784 5786 5787 5788 5790 5791 5792 5793 5793 5793 5794 5794 5794
5741 5741 5742 5742 5743 5743 5743 5743 5743 5743 5742 5742 5742 5742 5742 5743 5743 5743 5744 5744 5744 5745 5745 5745 5745 5745 5745 5745 5746 5746 5746 5747 5747 5748 5748 5749 5750 5751 5751 5752 5752 5753 5753 5754 5754 5754 5755 5755 5755 5755 5756 5757 5758 5759 5760 5762 5764 5766 5768 5769 5770 5771 5770 5771 5771 5773 5774 5774 5775 5774 5774 5775 5778 5780 5782 5783 5785 5786 5787 5788 5789 5789 5789 5789 5789
5739 5739 5740 5740 5741 5741 5741 5741 5741 5741 5741 5741 5741 5741 5741 5741 5741 5741 5742 5742 5742 5743 5743 5743 5743 5744 5744 5744 5744 5744 5744 5744 5745 5745 5746 5747 5747 5748 5749 5749 5750 5750 5750 5751 5752 5752 5752 5752 5752 5753 5754 5755 5755 5756 5757 5758 5760 5762 5763 5764 5766 5767 5766 5767 5767 5769 5770 5770 5770 5769 5769 5770 5772 5775 5777 5779 5780 5781 5783 5784 5784 5784 5784 5784 5784
5736 5737 5737 5738 5738 5739 5739 5739 5739 5739 5739 5739 5739 5739 5739 5740 5740 5740 5740 5740 5740 5741 5741 5741 5742 5742 5742 5742 5742 5742 5742 5743 5743 5743 5744 5744 5745 5746 5746 5747 5747 5748 5748 5748 5749 5750 5750 5750 5751 5751 5752 5752 5753 5753 5754 5755 5756 5757 5759 5761 5762 5763 5763 5764 5764 5765 5766 5766 5765 5766 5766 5767 5769 5771 5773 5775 5776 5777 5778 5779 5780 5780 5780 5779 5779
5734 5734 5735 5736 5736 5736 5737 5737 5737 5737 5737 5738 5738 5738 5738 5738 5739 5739 5739 5739 5739 5739 5739 5740 5740 5740 5740 5740 5741 5741 5741 5741 5741 5741 5742 5742 5743 5743 5744 5744 5745 5745 5746 5746 5746 5747 5748 5748 5748 5749 5750 5750 5751 5751 5751 5752 5753 5754 5756 5758 5758 5759 5760 5761 5761 5761 5761 5762 5762 5763 5763 5764 5765 5767 5769 5770 5772 5773 5774 5775 5775 5776 5775 5775 5775
5731 5732 5733 5733 5734 5734 5734 5734 5735 5735 5735 5735 5736 5736 5737 5737 5737 5737 5738 5738 5738 5738 5738 5738 5738 5738 5739 5739 5739 5739 5739 5739 5740 5740 5740 5740 5741 5741 5742 5742 5743 5743 5744 5744 5744 5744 5745 5745 5746 5747 5747 5748 5749 5749 5749 5750 5751 5753 5754 5755 5755 5756 5757 5758 5758 5758 5758 5758 5759 5760 5760 5761 5762 5763 5765 5766 5767 5768 5769 5770 5771 5771 5771 5771 5771
5729 5730 5730 5730 5731 5731 5732 5732 5732 5733 5733 5733 5734 5734 5734 5735 5735 5735 5735 5736 5736 5736 5736 5737 5737 5737 5737 5737 5737 5737 5737 5737 5737 5738 5738 5738 5739 5739 5739 5740 5740 5741 5741 5741 5741 5742 5742 5743 5743 5743 5744 5745 5746 5746 5747 5747 5748 5750 5751 5751 5752 5752 5753 5754 5755 5755 5755 5755 5756 5757 5757 5758 5758 5759 5761 5762 5763 5764 5765 5766 5766 5767 5767 5767 5767
5727 5727 5728 5728 5728 5729 5729 5730 5730 5731 5731 5731 5731 5732 5732 5732 5732 5733 5733 5733 5734 5734 5734 5735 5735 5735 5735 5735 5735 5735 5735 5735 5736 5736 5736 5736 5736 5737 5737 5738 5738 5738 5739 5739 5739 5739 5739 5740 5740 5740 5741 5742 5742 5743 5743 5744 5745 5746 5747 5747 5748 5748 5749 5750 5751 5752 5752 5752 5753 5754 5754 5755 5755 5756 5757 5758 5759 5760 5761 5762 5763 5763 5763 5764 5764
5725 5725 5726 5726 5726 5726 5727 5727 5728 5728 5729 5729 5729 5729 5729 5729 5730 5730 5730 5731 5731 5731 5732 5733 5733 5733 5733 5733 5733 5732 5733 5733 5733 5734 5734 5734 5734 5734 5734 5735 5735 5736 5736 5737 5737 5737 5736 5737 5737 5737 5738 5738 5739 5739 5740 5740 5741 5742 5742 5743 5743 5744 5745 5746 5747 5748 5748 5749 5750 5750 5751 5751 5752 5752 5753 5754 5755 5756 5757 5758 5758 5759 5759 5760 5760
5722 5722 5723 5723 5724 5724 5724 5725 5725 5725 5725 5726 5726 5726 5726 5727 5727 5727 5727 5728 5728 5729 5729 5730 5730 5730 5730 5731 5731 5730 5730 5730 5730 5730 5731 5731 5731 5731 5732 5732 5732 5733 5733 5733 5734 5734 5734 5734 5734 5734 5734 5734 5735 5735 5736 5737 5737 5738 5738 5739 5739 5740 5741 5742 5743 5743 5744 5745 5746 5746 5747 5747 5748 5749 5750 5750 5751 5752 5752 5753 5754 5754 5755 5755 5755
5719 5720 5720 5720 5721 5721 5721 5722 5722 5722 5722 5723 5723 5723 5724 5724 5724 5725 5725 5725 5725 5726 5726 5726 5727 5727 5727 5727 5728 5728 5728 5728 5727 5727 5727 5727 5727 5728 5728 5728 5728 5729 5729 5729 5730 5730 5731 5731 5731 5731 5731 5731 5731 5731 5732 5732 5733 5734 5734 5734 5735 5735 5736 5737 5738 5739 5740 5741 5741 5742 5742 5743 5744 5744 5745 5746 5747 5747 5748 5749 5749 5749 5750 5750 5750
5716 5717 5718 5718 5718 5718 5719 5719 5719 5719 5719 5720 5720 5720 5720 5721 5721 5721 5722 5722 5722 5722 5723 5723 5723 5724 5724 5724 5724 5724 5724 5724 5724 5724 5724 5724 5724 5724 5724 5724 5724 5724 5725 5725 5725 5725 5726 5727 5727 5726 5727 5727 5728 5727 5727 5728 5729 5729 5730 5730 5730 5730 5731 5732 5733 5734 5735 5736 5737 5737 5738 5738 5739 5740 5740 5741 5742 5742 5743 5743 5744 5744 5745 5745 5746
5712 5713 5714 5714 5715 5715 5715 5715 5715 5716 5716 5716 5717 5717 5717 5717 5717 5717 5718 5718 5719 5719 5719 5719 5719 5720 5720 5720 5721 5721 5721 5721 5721 5721 5721 5721 5721 5720 5720 5720 5720 5720 5720 5720 5720 5721 5721 5721 5722 5722 5722 5722 5723 5723 5723 5723 5724 5724 5725 5725 5726 5726 5726 5727 5727 5728 5729 5730 5731 5732 5733 5734 5734 5735 5735 5736 5737 5737 5738 5738 5739 5739 5739 5740 5740
5707 5708 5709 5710 5710 5710 5710 5711 5711 5712 5712 5713 5713 5713 5713 5714 5714 5713 5713 5714 5715 5715 5716 5716 5716 5716 5716 5716 5716 5717 5717 5716 5716 5717 5717 5717 5717 5717 5717 5717 5716 5716 5716 5716 5716 5716 5716 5717 5717 5717 5717 5716 5717 5717 5717 5718 5719 5719 5720 5720 5721 5722 5722 5722 5723 5723 5724 5725 5726 5727 5728 5729 5729 5730 5730 5731 5732 5732 5733 5733 5734 5734 5735 5735 5735
5702 5704 5705 5705 5705 5705 5706 5707 5708 5708 5708 5709 5709 5709 5710 5710 5710 5709 5709 5709 5710 5711 5712 5712 5712 5712 5712 5712 5712 5712 5712 5712 5712 5712 5712 5712 5713 5713 5713 5712 5712 5712 5712 5712 5712 5712 5712 5712 5712 5712 5712 5712 5711 5711 5711 5711 5712 5713 5714 5715 5716 5717 5717 5718 5718 5719 5719 5720 5721 5722 5723 5724 5725 5725 5726 5726 5727 5727 5728 5728 5729 5729 5730 5730 5730
5698 5699 5699 5700 5700 5701 5702 5703 5704 5704 5704 5705 5705 5705 5706 5706 5705 5705 5705 5705 5706 5706 5707 5707 5707 5708 5708 5708 5708 5708 5708 5708 5707 5707 5708 5708 5708 5708 5708 5708 5708 5708 5707 5707 5707 5707 5707 5707 5708 5708 5708 5708 5707 5706 5706 5706 5706 5706 5707 5708 5709 5711 5712 5713 5713 5714 5714 5715 5716 5717 5718 5718 5719 5720 5721 5721 5721 5721 5722 5723 5724 5724 5725 5725 5725
5693 5693 5693 5693 5694 5696 5696 5697 5699 5699 5698 5699 5699 5699 5701 5702 5701 5700 5701 5701 5701 5702 5702 5703 5703 5703 5703 5703 5704 5704 5703 5703 5703 5703 5703 5703 5703 5703 5703 5703 5702 5702 5703 5703 5702 5702 5702 5703 5703 5703 5703 5703 5702 5701 5701 5701 5701 5701 5702 5702 5702 5704 5705 5706 5708 5708 5708 5709 5710 5712 5713 5713 5713 5715 5716 5716 5716 5716 5716 5717 5717 5718 5719 5719 5720
5687 5687 5687 5687 5688 5690 5691 5691 5693 5694 5693 5694 5693 5693 5695 5696 5696 5696 5696 5696 5696 5697 5697 5698 5698 5698 5698 5698 5699 5699 5699 5699 5698 5698 5698 5698 5697 5698 5698 5698 5697 5697 5697 5697 5697 5697 5697 5697 5697 5697 5697 5697 5697 5697 5696 5696 5696 5696 5697 5697 5697 5697 5698 5699 5701 5702 5702 5702 5703 5706 5707 5707 5707 5709 5710 5711 5711 5711 5712 5712 5713 5713 5714 5714 5714
5680 5681 5681 5681 5682 5684 5685 5685 5687 5688 5689 5689 5688 5688 5688 5690 5691 5691 5691 5691 5692 5692 5692 5692 5692 5692 5692 5692 5693 5694 5694 5694 5693 5693 5693 5693 5692 5692 5692 5692 5691 5691 5691 5691 5691 5691 5691 5691 5691 5691 5691 5691 5691 5691 5690 5690 5690 5691 5691 5691 5691 5691 5692 5692 5694 5695 5696 5695 5696 5698 5700 5700 5700 5702 5703 5704 5705 5705 5706 5707 5708 5708 5709 5709 5709
5674 5675 5676 5675 5675 5675 5678 5679 5680 5682 5683 5683 5683 5683 5683 5683 5684 5685 5685 5686 5686 5687 5686 5686 5686 5685 5685 5686 5686 5687 5687 5687 5688 5688 5687 5687 5687 5686 5686 5685 5685 5685 5684 5684 5684 5684 5684 5684 5685 5685 5684 5684 5685 5685 5684 5684 5684 5684 5684 5684 5684 5684 5685 5686 5687 5689 5689 5689 5688 5690 5692 5693 5693 5694 5696 5697 5697 5698 5699 5700 5701 5702 5703 5703 5703
5667 5668 5668 5669 5668 5668 5669 5671 5673 5675 5676 5675 5676 5677 5677 5676 5677 5677 5677 5678 5680 5680 5680 5680 5679 5679 5679 5679 5679 5679 5679 5680 5681 5681 5681 5680 5680 5680 5680 5680 5680 5679 5678 5677 5677 5676 5676 5676 5677 5678 5677 5677 5677 5678 5677 5677 5677 5677 5677 5677 5677 5677 5678 5679 5680 5681 5682 5681 5681 5682 5685 5686 5685 5686 5688 5689 5690 5691 5692 5692 5693 5694 5696 5697 5697
5661 5661 5661 5662 5662 5661 5661 5661 5664 5668 5669 5667 5669 5671 5671 5671 5670 5670 5669 5670 5672 5673 5672 5672 5673 5673 5672 5672 5672 5672 5671 5672 5673 5673 5673 5672 5672 5672 5672 5673 5673 5673 5672 5671 5670 5670 5669 5669 5670 5670 5669 5669 5669 5670 5670 5669 5669 5669 5669 5669 5670 5670 5670 5671 5672 5673 5674 5674 5673 5674 5677 5679 5678 5678 5681 5681 5682 5683 5684 5684 5685 5686 5687 5689 5690
5653 5653 5654 5655 5656 5656 5655 5654 5657 5661 5661 5660 5661 5663 5664 5664 5664 5663 5662 5663 5665 5665 5665 5665 5666 5666 5665 5665 5664 5664 5664 5664 5665 5664 5664 5664 5663 5663 5664 5664 5665 5665 5665 5664 5663 5663 5663 5663 5663 5662 5662 5662 5661 5661 5661 5661 5661 5661 5661 5662 5662 5661 5662 5664 5665 5665 5666 5666 5665 5666 5669 5672 5671 5671 5673 5673 5674 5676 5676 5677 5677 5678 5679 5680 5681
5646 5647 5647 5647 5648 5649 5649 5649 5652 5655 5654 5653 5654 5656 5656 5656 5655 5655 5655 5656 5657 5657 5657 5658 5658 5658 5657 5657 5656 5656 5656 5657 5657 5656 5656 5655 5655 5655 5655 5656 5656 5656 5656 5655 5655 5655 5655 5655 5655 5654 5654 5654 5653 5653 5653 5653 5653 5652 5653 5654 5654 5652 5653 5656 5657 5658 5658 5658 5658 5657 5660 5663 5663 5663 5665 5666 5666 5668 5668 5669 5669 5670 5670 5671 5672
5640 5640 5640 5641 5641 5641 5642 5644 5647 5648 5646 5646 5648 5649 5649 5648 5648 5648 5649 5649 5650 5650 5650 5650 5650 5650 5649 5649 5649 5649 5649 5649 5649 5648 5648 5647 5647 5647 5647 5647 5647 5647 5646 5646 5646 5647 5646 5646 5647 5646 5646 5645 5645 5645 5645 5645 5644 5643 5644 5645 5645 5644 5645 5647 5648 5649 5650 5651 5651 5649 5651 5654 5654 5654 5657 5658 5658 5659 5660 5661 5661 5661 5661 5662 5664
5633 5633 5634 5634 5633 5635 5638 5640 5642 5642 5640 5639 5640 5641 5641 5641 5641 5641 5642 5641 5642 5642 5642 5642 5643 5642 5641 5641 5642 5641 5641 5641 5641 5640 5639 5639 5639 5639 5639 5638 5638 5638 5638 5637 5638 5638 5638 5638 5638 5637 5637 5637 5636 5636 5636 5636 5636 5635 5635 5635 5635 5635 5637 5638 5638 5640 5642 5643 5642 5640 5642 5645 5645 5646 5648 5649 5650 5651 5651 5652 5652 5652 5652 5653 5655